Location: *
(46.1006°N, 1.8394°E)
Time: 06:47:06
(UTC+00:00)

Cosmos 1544 Rocket - Pass Details

Date: 20 September 2019
Orbit: 604 x 632 km, 82.5° (Epoch: 19 October)

Event Time Altitude Azimuth Distance (km) Brightness Sun altitude
Exits shadow 19:11:20 18° 136° (SE) 1,562 5.1 -13.9°
Maximum altitude 19:13:46 29° 89° (E) 1,170 4.4 -14.3°
Drops below altitude 10° 19:17:37 10° 30° (NNE) 2,021 6.1 -14.9°
Sets 19:20:04 0° 19° (NNE) 2,931 7.0 -15.3°
